Kiel Holtenau current weather conditions

sailwx.info

Wind from 230 at 15 knots

Air temperature 5.0° C
Visibility: greater than 5.4 NM
Dewpoint 3.0° C
Present weather: Light rain.

Last reported at 2019-Dec-14 15:20 UTC.
Time now 2019-Dec-14 16:45 UTC

Location: N 54°23' E 010°09'.
View on Google Maps.

See reports from other nearby stations

  
Tides and Currents Weather Stations Pressure Air Temp Water Temp Dewpoint Dewpoint Depression Visibility Wind Speed Wind Dir Waves Ship Positions
date/time (UTC)wind fromknots sea level pressurealtimeterstation pressurevisibilityair tempwater tempwave heightnotes
2019-Dec-14 15:20 230 15 5.4 5.0 Light rain.
2019-Dec-14 14:50 230 13 5.4 5.0 Light rain.
2019-Dec-14 14:20 240 14 5.4 5.0 Light rain.
2019-Dec-14 13:50 240 14 gusting 27 5.4 5.0 Light rain.
2019-Dec-14 13:20 230 13 gusting 29 5.4 5.0 Light rain.
2019-Dec-14 12:50 220 12 5.4 5.0
2019-Dec-14 12:20 220 9 5.4 4.0 Light rain drizzle.
2019-Dec-14 11:50 220 9 5.4 4.0 Light rain.
2019-Dec-14 11:20 220 9 5.4 4.0 Light rain.
2019-Dec-14 10:50 230 13 5.4 4.0 Light rain.
2019-Dec-14 10:20 220 9 5.4 4.0 Light rain.
2019-Dec-14 09:50 210 8 5.4 4.0 Light rain.
2019-Dec-14 09:20 220 8 5.4 4.0 Light rain.
2019-Dec-14 08:50 220 9 3.2 4.0 Light rain.
2019-Dec-14 08:20 210 8 3.8 4.0 Light rain.
2019-Dec-14 07:50 210 7 2.7 4.0 Light rain. Mist.
2019-Dec-14 07:20 210 8 3.8 4.0
2019-Dec-13 15:20 120 7 5.4 2.0
2019-Dec-13 14:50 120 6 5.4 2.0
2019-Dec-13 14:20 120 7 5.4 2.0
2019-Dec-13 13:50 120 6 5.4 2.0
2019-Dec-13 13:20 120 7 5.4 3.0
2019-Dec-13 12:50 120 9 5.4 3.0
2019-Dec-13 12:20 120 11 5.4 3.0
2019-Dec-13 11:50 120 8 5.4 3.0
2019-Dec-13 11:20 130 8 5.4 3.0
2019-Dec-13 10:50 120 11 5.4 3.0
2019-Dec-13 10:20 130 7 5.4 3.0
2019-Dec-13 09:50 130 8 5.4 2.0
2019-Dec-13 09:20 130 11 5.4 2.0
2019-Dec-13 08:50 140 8 5.4 2.0
2019-Dec-13 08:20 140 9 5.4 2.0
2019-Dec-13 07:50 130 8 5.4 1.0
2019-Dec-13 07:20 140 11 5.4 1.0
2019-Dec-13 06:50 140 12 5.4 1.0
2019-Dec-13 06:20 140 12 5.4 1.0